| time (UTC) | temp F | wind direction | speed MPH | gust MPH | rain 1hr in | rain 24hr in | rain mn in | humidity % | barometer mb |
| 20260905085014 | 77 | 0 | 0.0 | 1.0 | 0.00 | 0.00 | 0.00 | 86 | 1011.8 |
| 20260905084014 | 78 | 0 | 0.0 | 0.0 | 0.00 | 0.00 | 0.00 | 86 | 1011.8 |
| 20260905082014 | 78 | 0 | 0.0 | 0.0 | 0.00 | 0.00 | 0.00 | 85 | 1011.9 |
| 20260905081014 | 78 | 0 | 0.0 | 0.0 | 0.00 | 0.00 | 0.00 | 85 | 1012.0 |
| 20260905075014 | 78 | 0 | 0.0 | 0.0 | 0.00 | 0.00 | 0.00 | 85 | 1012.1 |
| 20260905074014 | 78 | 0 | 0.0 | 0.0 | 0.00 | 0.00 | 0.00 | 85 | 1012.0 |
| 20260905072014 | 79 | 0 | 0.0 | 0.0 | 0.00 | 0.00 | 0.00 | 84 | 1012.3 |
| 20260905064014 | 79 | 0 | 0.0 | 0.0 | 0.00 | 0.00 | 0.00 | 83 | 1012.6 |
| 20260905063014 | 80 | 0 | 0.0 | 0.0 | 0.00 | 0.00 | 0.00 | 83 | 1012.6 |
| 20260905062015 | 80 | 0 | 0.0 | 0.0 | 0.00 | 0.00 | 0.00 | 82 | 1012.5 |
| 20260905061014 | 80 | 0 | 0.0 | 0.0 | 0.00 | 0.00 | 0.00 | 82 | 1012.3 |
| 20260905060015 | 80 | 0 | 0.0 | 0.0 | 0.00 | 0.00 | 0.00 | 81 | 1012.4 |
| 20260905055014 | 80 | 0 | 0.0 | 0.0 | 0.00 | 0.00 | 0.00 | 81 | 1012.3 |
| 20260905054013 | 81 | 0 | 0.0 | 0.0 | 0.00 | 0.00 | 0.00 | 81 | 1012.2 |
| 20260905053014 | 81 | 0 | 0.0 | 0.0 | 0.00 | 0.00 | 0.00 | 81 | 1012.1 |
| 20260905052014 | 81 | 0 | 0.0 | 1.0 | 0.00 | 0.00 | 0.00 | 81 | 1012.2 |
| 20260905051014 | 81 | 0 | 0.0 | 1.0 | 0.00 | 0.00 | 0.00 | 80 | 1012.2 |
| 20260905050014 | 81 | 0 | 0.0 | 2.0 | 0.00 | 0.00 | 0.00 | 80 | 1012.1 |
| 20260905045014 | 81 | 0 | 0.0 | 1.0 | 0.00 | 0.00 | 0.00 | 79 | 1012.2 |
| 20260905044014 | 82 | 0 | 0.0 | 0.0 | 0.00 | 0.00 | 0.00 | 79 | 1012.2 |
| 20260905042015 | 82 | 0 | 0.0 | 0.0 | 0.00 | 0.00 | 0.00 | 78 | 1012.3 |
| 20260905040014 | 82 | 0 | 0.0 | 0.0 | 0.00 | 0.00 | 0.00 | 78 | 1012.2 |
| 20260905035014 | 83 | 0 | 0.0 | 0.0 | 0.00 | 0.00 | 0.00 | 77 | 1012.3 |
| 20260905034014 | 83 | 0 | 0.0 | 1.0 | 0.00 | 0.00 | 0.00 | 77 | 1012.5 |
| 20260905033013 | 83 | 0 | 0.0 | 0.0 | 0.00 | 0.00 | 0.00 | 77 | 1012.5 |
| 20260905032014 | 84 | 0 | 0.0 | 0.0 | 0.00 | 0.00 | 0.00 | 76 | 1012.4 |
| 20260905031014 | 84 | 0 | 0.0 | 0.0 | 0.00 | 0.00 | 0.00 | 76 | 1012.2 |
| 20260905030013 | 84 | 0 | 0.0 | 0.0 | 0.00 | 0.00 | 0.00 | 75 | 1012.3 |
| 20260905025014 | 84 | 0 | 0.0 | 0.0 | 0.00 | 0.00 | 0.00 | 74 | 1012.1 |
| 20260905024014 | 85 | 0 | 0.0 | 0.0 | 0.00 | 0.00 | 0.00 | 74 | 1012.1 |
| 20260905022015 | 85 | 0 | 0.0 | 0.0 | 0.00 | 0.00 | 0.00 | 72 | 1011.8 |
| 20260905021013 | 85 | 0 | 0.0 | 2.0 | 0.00 | 0.00 | 0.00 | 73 | 1011.8 |
| 20260905020014 | 86 | 0 | 0.0 | 0.0 | 0.00 | 0.00 | 0.00 | 73 | 1011.6 |
| 20260905015013 | 86 | 0 | 0.0 | 0.0 | 0.00 | 0.00 | 0.00 | 72 | 1011.4 |
| 20260905014014 | 86 | 0 | 0.0 | 0.0 | 0.00 | 0.00 | 0.00 | 72 | 1011.3 |
| 20260905013014 | 86 | 0 | 0.0 | 0.0 | 0.00 | 0.00 | 0.00 | 71 | 1011.2 |
| 20260905012014 | 86 | 0 | 0.0 | 0.0 | 0.00 | 0.00 | 0.00 | 72 | 1011.1 |
| 20260905005014 | 87 | 0 | 0.0 | 1.0 | 0.00 | 0.00 | 0.00 | 71 | 1011.0 |
| 20260905004014 | 88 | 0 | 0.0 | 0.0 | 0.00 | 0.00 | 0.00 | 68 | 1011.0 |
| 20260905003014 | 90 | 0 | 0.0 | 1.0 | 0.00 | 0.00 | 0.00 | 65 | 1010.9 |
| 20260905002014 | 91 | 148 | 0.0 | 1.0 | 0.00 | 0.00 | 0.00 | 60 | 1010.9 |
| 20260905001014 | 92 | 147 | 1.0 | 2.0 | 0.00 | 0.00 | 0.00 | 59 | 1011.0 |
| 20260905000013 | 92 | 0 | 0.0 | 2.0 | 0.00 | 0.00 | 0.00 | 58 | 1010.9 |
| 20260904235015 | 92 | 0 | 0.0 | 2.0 | 0.00 | 0.00 | 0.00 | 59 | 1010.9 |
| 20260904232013 | 92 | 145 | 1.0 | 2.0 | 0.00 | 0.00 | 0.00 | 57 | 1010.7 |
| 20260904231014 | 92 | 139 | 1.0 | 2.0 | 0.00 | 0.00 | 0.00 | 57 | 1010.9 |
| 20260904230014 | 93 | 143 | 1.0 | 3.0 | 0.00 | 0.00 | 0.00 | 59 | 1010.8 |
| 20260904225013 | 93 | 141 | 1.0 | 3.0 | 0.00 | 0.00 | 0.00 | 57 | 1010.8 |
| 20260904224015 | 93 | 143 | 1.0 | 3.0 | 0.00 | 0.00 | 0.00 | 56 | 1010.8 |
| 20260904223013 | 93 | 238 | 2.0 | 5.0 | 0.00 | 0.00 | 0.00 | 56 | 1010.8 |
| 20260904222014 | 92 | 216 | 1.0 | 5.0 | 0.00 | 0.00 | 0.00 | 57 | 1010.8 |
| 20260904220014 | 94 | 258 | 1.0 | 2.0 | 0.00 | 0.00 | 0.00 | 55 | 1010.8 |
| 20260904215013 | 94 | 238 | 2.0 | 7.0 | 0.00 | 0.00 | 0.00 | 56 | 1010.9 |
| 20260904214014 | 94 | 240 | 1.0 | 4.0 | 0.00 | 0.00 | 0.00 | 56 | 1010.9 |
| 20260904213013 | 94 | 140 | 1.0 | 3.0 | 0.00 | 0.00 | 0.00 | 55 | 1011.0 |
| 20260904212014 | 94 | 217 | 2.0 | 5.0 | 0.00 | 0.00 | 0.00 | 56 | 1011.2 |
| 20260904211014 | 94 | 253 | 1.0 | 6.0 | 0.00 | 0.00 | 0.00 | 56 | 1011.3 |
| 20260904210013 | 94 | 230 | 2.0 | 4.0 | 0.00 | 0.00 | 0.00 | 55 | 1011.4 |
| 20260904205014 | 93 | 264 | 3.0 | 7.0 | 0.00 | 0.00 | 0.00 | 55 | 1011.4 |
| 20260904204013 | 94 | 256 | 2.0 | 8.0 | 0.00 | 0.00 | 0.00 | 56 | 1011.5 |
| 20260904203013 | 93 | 275 | 2.0 | 6.0 | 0.00 | 0.00 | 0.00 | 58 | 1011.6 |
| 20260904200014 | 92 | 159 | 1.0 | 3.0 | 0.00 | 0.00 | 0.00 | 58 | 1012.3 |
| 20260904194013 | 92 | 195 | 1.0 | 2.0 | 0.00 | 0.00 | 0.00 | 60 | 1012.6 |
| 20260904193013 | 92 | 211 | 1.0 | 5.0 | 0.00 | 0.00 | 0.00 | 60 | 1012.6 |
| 20260904191016 | 91 | 209 | 2.0 | 5.0 | 0.00 | 0.00 | 0.00 | 58 | 1012.9 |
| 20260904190014 | 91 | 121 | 1.0 | 5.0 | 0.00 | 0.00 | 0.00 | 57 | 1013.0 |
| 20260904185013 | 91 | 176 | 2.0 | 3.0 | 0.00 | 0.00 | 0.00 | 59 | 1012.9 |
| 20260904184013 | 92 | 168 | 2.0 | 5.0 | 0.00 | 0.00 | 0.00 | 60 | 1013.0 |
| 20260904183013 | 91 | 128 | 2.0 | 5.0 | 0.00 | 0.00 | 0.00 | 59 | 1013.2 |
| 20260904182013 | 90 | 167 | 2.0 | 4.0 | 0.00 | 0.00 | 0.00 | 60 | 1013.3 |
| 20260904181013 | 90 | 190 | 2.0 | 5.0 | 0.00 | 0.00 | 0.00 | 59 | 1013.6 |
| 20260904180014 | 90 | 177 | 2.0 | 5.0 | 0.00 | 0.00 | 0.00 | 63 | 1013.6 |
| 20260904175014 | 90 | 203 | 2.0 | 5.0 | 0.00 | 0.00 | 0.00 | 61 | 1013.8 |
| 20260904173014 | 88 | 169 | 1.0 | 3.0 | 0.00 | 0.00 | 0.00 | 67 | 1014.0 |
| 20260904172013 | 88 | 156 | 2.0 | 4.0 | 0.00 | 0.00 | 0.00 | 67 | 1014.2 |
| 20260904171013 | 88 | 131 | 1.0 | 3.0 | 0.00 | 0.00 | 0.00 | 68 | 1014.5 |
| 20260904170014 | 88 | 130 | 2.0 | 4.0 | 0.00 | 0.00 | 0.00 | 67 | 1014.4 |
| 20260904165013 | 88 | 249 | 1.0 | 3.0 | 0.00 | 0.00 | 0.00 | 70 | 1014.4 |
| 20260904164013 | 87 | 143 | 1.0 | 5.0 | 0.00 | 0.00 | 0.00 | 72 | 1014.5 |
| 20260904163013 | 86 | 229 | 2.0 | 4.0 | 0.00 | 0.00 | 0.00 | 73 | 1014.6 |
| 20260904162013 | 86 | 253 | 1.0 | 5.0 | 0.00 | 0.00 | 0.00 | 75 | 1014.5 |
| 20260904161013 | 83 | 270 | 1.0 | 4.0 | 0.00 | 0.00 | 0.00 | 81 | 1014.5 |
| 20260904160013 | 82 | 255 | 1.0 | 4.0 | 0.00 | 0.00 | 0.00 | 83 | 1014.6 |
| 20260904155013 | 82 | 224 | 1.0 | 4.0 | 0.00 | 0.00 | 0.00 | 87 | 1014.6 |
| 20260904154013 | 81 | 233 | 1.0 | 3.0 | 0.00 | 0.00 | 0.00 | 90 | 1014.5 |
| 20260904153013 | 81 | 151 | 1.0 | 5.0 | 0.00 | 0.00 | 0.00 | 91 | 1014.5 |
| 20260904152014 | 81 | 130 | 1.0 | 2.0 | 0.00 | 0.00 | 0.00 | 93 | 1014.5 |
| 20260904151013 | 80 | 157 | 1.0 | 4.0 | 0.00 | 0.00 | 0.00 | 94 | 1014.4 |
| 20260904150013 | 80 | 89 | 1.0 | 3.0 | 0.00 | 0.00 | 0.00 | 94 | 1014.3 |
| 20260904145013 | 79 | 101 | 2.0 | 3.0 | 0.00 | 0.00 | 0.00 | 94 | 1014.5 |
| 20260904144013 | 79 | 178 | 1.0 | 4.0 | 0.00 | 0.00 | 0.00 | 94 | 1014.6 |
| 20260904142013 | 78 | 111 | 1.0 | 3.0 | 0.00 | 0.00 | 0.00 | 94 | 1014.5 |
| 20260904141013 | 77 | 85 | 1.0 | 2.0 | 0.00 | 0.00 | 0.00 | 94 | 1014.4 |
| 20260904135013 | 76 | 74 | 0.0 | 2.0 | 0.00 | 0.00 | 0.00 | 93 | 1014.2 |
| 20260904134012 | 75 | 116 | 1.0 | 2.0 | 0.00 | 0.00 | 0.00 | 92 | 1014.2 |
| 20260904133013 | 75 | 122 | 0.0 | 3.0 | 0.00 | 0.00 | 0.00 | 92 | 1014.2 |
| 20260904132013 | 75 | 0 | 0.0 | 0.0 | 0.00 | 0.00 | 0.00 | 91 | 1014.1 |
| 20260904130013 | 74 | 0 | 0.0 | 0.0 | 0.00 | 0.00 | 0.00 | 91 | 1013.9 |
| 20260904125013 | 74 | 0 | 0.0 | 0.0 | 0.00 | 0.01 | 0.00 | 91 | 1013.8 |
| 20260904124013 | 74 | 0 | 0.0 | 0.0 | 0.00 | 0.01 | 0.00 | 91 | 1013.6 |
| 20260904123014 | 74 | 0 | 0.0 | 0.0 | 0.00 | 0.01 | 0.00 | 91 | 1013.6 |
| 20260904122012 | 74 | 0 | 0.0 | 0.0 | 0.00 | 0.01 | 0.00 | 91 | 1013.6 |
| 20260904121013 | 74 | 0 | 0.0 | 0.0 | 0.00 | 0.01 | 0.00 | 91 | 1013.5 |
| 20260904114013 | 75 | 0 | 0.0 | 0.0 | 0.00 | 0.01 | 0.00 | 90 | 1013.2 |
| 20260904112013 | 75 | 0 | 0.0 | 0.0 | 0.00 | 0.01 | 0.00 | 90 | 1013.2 |
| 20260904111012 | 75 | 0 | 0.0 | 0.0 | 0.00 | 0.01 | 0.00 | 90 | 1013.2 |
| 20260904110013 | 75 | 0 | 0.0 | 0.0 | 0.00 | 0.01 | 0.00 | 90 | 1013.2 |
| 20260904104013 | 75 | 0 | 0.0 | 0.0 | 0.00 | 0.01 | 0.00 | 90 | 1013.1 |
| 20260904103013 | 75 | 0 | 0.0 | 0.0 | 0.00 | 0.01 | 0.00 | 90 | 1013.1 |
| 20260904102013 | 75 | 0 | 0.0 | 0.0 | 0.00 | 0.01 | 0.00 | 90 | 1013.0 |
| 20260904100013 | 75 | 0 | 0.0 | 0.0 | 0.00 | 0.02 | 0.00 | 90 | 1012.8 |
| 20260904095013 | 76 | 0 | 0.0 | 1.0 | 0.00 | 0.02 | 0.00 | 89 | 1012.7 |
| 20260904094013 | 76 | 0 | 0.0 | 1.0 | 0.00 | 0.03 | 0.00 | 89 | 1012.6 |
| 20260904093012 | 76 | 0 | 0.0 | 1.0 | 0.00 | 0.03 | 0.00 | 89 | 1012.5 |
| 20260904092013 | 76 | 0 | 0.0 | 0.0 | 0.00 | 0.04 | 0.00 | 89 | 1012.5 |
| 20260904091012 | 76 | 0 | 0.0 | 0.0 | 0.00 | 0.04 | 0.00 | 89 | 1012.6 |
| 20260904090013 | 76 | 0 | 0.0 | 0.0 | 0.00 | 0.05 | 0.00 | 90 | 1012.6 |